When you browse on this site, cookies collect data to enhance your experience and personalize the content and advertising you see.
Visit our Privacy Policy to learn more. By continuing to use the site, you agree to this use of cookies and data.
  • In Romania
  • List of Countries
  • For 7 days
  • Water Temperature
  • Weather Map
  • Weather Widgets
  • user-avatar
    Login

    Hourly Weather Innsbruck

    Today, 2 June, Tuesday

    Time Temperature Precipitation Wind Pressure Humidity
    00:00 +3°C° 0 mm 1 mps 596 mmHg 95%
    01:00 +2°C° 0 mm 1 mps 595 mmHg 95%
    02:00 +2°C° 0 mm 1 mps 595 mmHg 95%
    03:00 +2°C° 0 mm 1 mps 595 mmHg 94%
    04:00 +2°C° 0 mm 1 mps 595 mmHg 94%
    05:00 +4°C° 0 mm 1 mps 596 mmHg 87%
    06:00 +6°C° 0 mm 1 mps 597 mmHg 79%
    07:00 +9°C° 0 mm 1 mps 598 mmHg 68%
    08:00 +10°C° 0 mm 1 mps 598 mmHg 60%
    09:00 +10°C° 0 mm 2 mps 599 mmHg 52%
    10:00 +13°C° 0 mm 2 mps 599 mmHg 44%
    11:00 +13°C° 0.1 mm 2 mps 599 mmHg 44%
    12:00 +13°C° 0.1 mm 3 mps 599 mmHg 43%
    13:00 +13°C° 0.1 mm 3 mps 599 mmHg 43%
    14:00 +13°C° 0.3 mm 3 mps 598 mmHg 46%
    15:00 +12°C° 0.3 mm 3 mps 598 mmHg 49%
    16:00 +12°C° 0.3 mm 3 mps 597 mmHg 52%
    17:00 +12°C° 0.2 mm 2 mps 597 mmHg 60%
    18:00 +9°C° 0.2 mm 2 mps 596 mmHg 67%
    19:00 +8°C° 0.2 mm 2 mps 595 mmHg 75%
    20:00 +7°C° 0 mm 1 mps 595 mmHg 80%
    21:00 +5°C° 0 mm 1 mps 594 mmHg 86%
    22:00 +3°C° 0 mm 1 mps 593 mmHg 91%
    23:00 +3°C° 0 mm 1 mps 593 mmHg 90%

    Tomorrow, 3 June, Wednesday

    Time Temperature Precipitation Wind Pressure Humidity
    00:00 +2°C° 0 mm 1 mps 592 mmHg 90%
    01:00 +2°C° 0 mm 1 mps 592 mmHg 90%
    02:00 +2°C° 0 mm 1 mps 592 mmHg 87%
    03:00 +2°C° 0 mm 1 mps 591 mmHg 85%
    04:00 +2°C° 0 mm 1 mps 591 mmHg 83%
    05:00 +4°C° 0 mm 1 mps 592 mmHg 75%
    06:00 +5°C° 0 mm 0 mps 592 mmHg 67%
    07:00 +7°C° 0 mm 0 mps 593 mmHg 60%
    08:00 +9°C° 0 mm 0 mps 594 mmHg 51%
    09:00 +11°C° 0 mm 0 mps 595 mmHg 43%
    10:00 +14°C° 0 mm 1 mps 595 mmHg 35%
    11:00 +15°C° 0 mm 1 mps 595 mmHg 33%
    12:00 +16°C° 0 mm 1 mps 595 mmHg 31%
    13:00 +16°C° 0 mm 1 mps 594 mmHg 30%
    14:00 +16°C° 0.1 mm 1 mps 594 mmHg 34%
    15:00 +15°C° 0.1 mm 1 mps 593 mmHg 38%
    16:00 +15°C° 0.1 mm 1 mps 593 mmHg 42%
    17:00 +13°C° 0.2 mm 1 mps 592 mmHg 51%
    18:00 +12°C° 0.2 mm 1 mps 591 mmHg 61%
    19:00 +10°C° 0.2 mm 1 mps 590 mmHg 70%
    20:00 +9°C° 0.1 mm 1 mps 590 mmHg 74%
    21:00 +7°C° 0.1 mm 2 mps 589 mmHg 78%
    22:00 +5°C° 0.1 mm 2 mps 589 mmHg 82%
    23:00 +5°C° 0 mm 2 mps 588 mmHg 84%

    Day after tomorrow, 4 June, Thursday

    Time Temperature Precipitation Wind Pressure Humidity
    00:00 +4°C° 0 mm 2 mps 588 mmHg 86%
    01:00 +4°C° 0 mm 2 mps 587 mmHg 88%
    02:00 +4°C° 0 mm 2 mps 587 mmHg 88%
    03:00 +4°C° 0 mm 2 mps 587 mmHg 89%
    04:00 +4°C° 0 mm 2 mps 587 mmHg 90%
    05:00 +5°C° 0.1 mm 2 mps 587 mmHg 88%
    06:00 +7°C° 0.1 mm 1 mps 587 mmHg 85%
    07:00 +8°C° 0.1 mm 1 mps 588 mmHg 82%
    08:00 +8°C° 0.4 mm 1 mps 587 mmHg 84%
    09:00 +8°C° 0.4 mm 1 mps 587 mmHg 86%
    10:00 +8°C° 0.4 mm 1 mps 587 mmHg 88%
    11:00 +8°C° 0.4 mm 1 mps 587 mmHg 87%
    12:00 +7°C° 0.4 mm 2 mps 587 mmHg 86%
    13:00 +8°C° 0.4 mm 2 mps 587 mmHg 85%
    14:00 +7°C° 0.4 mm 2 mps 586 mmHg 86%
    15:00 +7°C° 0.4 mm 2 mps 586 mmHg 86%
    16:00 +7°C° 0.4 mm 2 mps 586 mmHg 87%
    17:00 +6°C° 0.5 mm 2 mps 586 mmHg 89%
    18:00 +6°C° 0.5 mm 2 mps 585 mmHg 91%
    19:00 +5°C° 0.5 mm 2 mps 585 mmHg 93%
    20:00 +6°C° 0.6 mm 1 mps 585 mmHg 94%
    21:00 +5°C° 0.6 mm 1 mps 585 mmHg 95%
    22:00 +5°C° 0.6 mm 1 mps 585 mmHg 97%
    23:00 +5°C° 2 mm 1 mps 584 mmHg 97%

    5 June, Friday

    Time Temperature Precipitation Wind Pressure Humidity
    00:00 +5°C° 2 mm 1 mps 584 mmHg 98%
    01:00 +4°C° 2 mm 1 mps 584 mmHg 98%
    02:00 +4°C° 2.8 mm 1 mps 583 mmHg 98%
    03:00 +3°C° 2.8 mm 1 mps 583 mmHg 98%
    04:00 +3°C° 2.8 mm 1 mps 583 mmHg 98%
    05:00 +3°C° 1.8 mm 1 mps 583 mmHg 98%
    06:00 +3°C° 1.8 mm 1 mps 584 mmHg 98%
    07:00 +3°C° 1.8 mm 1 mps 584 mmHg 98%
    08:00 +3°C° 1.4 mm 1 mps 585 mmHg 98%
    09:00 +3°C° 1.4 mm 1 mps 585 mmHg 97%
    10:00 +3°C° 1.4 mm 1 mps 586 mmHg 97%
    11:00 +3°C° 0.4 mm 1 mps 586 mmHg 96%
    12:00 +3°C° 0.4 mm 1 mps 586 mmHg 95%
    13:00 +4°C° 0.4 mm 1 mps 586 mmHg 94%
    14:00 +5°C° 0.2 mm 1 mps 587 mmHg 91%
    15:00 +5°C° 0.2 mm 1 mps 587 mmHg 87%
    16:00 +6°C° 0.2 mm 1 mps 588 mmHg 84%
    17:00 +6°C° 0.1 mm 1 mps 588 mmHg 86%
    18:00 +5°C° 0.1 mm 1 mps 588 mmHg 88%
    19:00 +5°C° 0.1 mm 1 mps 588 mmHg 90%
    20:00 +4°C° 0 mm 1 mps 588 mmHg 91%
    21:00 +3°C° 0 mm 1 mps 588 mmHg 92%
    22:00 +1°C° 0 mm 1 mps 588 mmHg 93%
    23:00 +1°C° 0 mm 1 mps 588 mmHg 91%

    6 June, Saturday

    Time Temperature Precipitation Wind Pressure Humidity
    00:00 +1°C° 0 mm 1 mps 588 mmHg 89%
    01:00 -2°C° 0 mm 2 mps 588 mmHg 87%
    02:00 -2°C° 0 mm 2 mps 588 mmHg 87%
    03:00 -2°C° 0 mm 2 mps 588 mmHg 88%
    04:00 -2°C° 0 mm 2 mps 588 mmHg 88%
    05:00 +1°C° 0 mm 2 mps 589 mmHg 86%
    06:00 +3°C° 0 mm 2 mps 590 mmHg 84%
    07:00 +5°C° 0 mm 1 mps 591 mmHg 82%
    08:00 +7°C° 0 mm 1 mps 592 mmHg 77%
    09:00 +9°C° 0 mm 1 mps 593 mmHg 72%
    10:00 +11°C° 0 mm 1 mps 594 mmHg 67%
    11:00 +10°C° 0.1 mm 2 mps 594 mmHg 68%
    12:00 +10°C° 0.1 mm 2 mps 593 mmHg 68%
    13:00 +10°C° 0.1 mm 2 mps 593 mmHg 69%
    14:00 +10°C° 0.2 mm 2 mps 593 mmHg 71%
    15:00 +10°C° 0.2 mm 2 mps 593 mmHg 73%
    16:00 +9°C° 0.2 mm 2 mps 593 mmHg 75%
    17:00 +9°C° 0.3 mm 1 mps 592 mmHg 81%
    18:00 +9°C° 0.3 mm 1 mps 592 mmHg 86%
    19:00 +8°C° 0.3 mm 1 mps 592 mmHg 92%
    20:00 +7°C° 0.1 mm 1 mps 592 mmHg 93%
    21:00 +6°C° 0.1 mm 1 mps 592 mmHg 94%
    22:00 +6°C° 0.1 mm 1 mps 592 mmHg 95%
    23:00 +5°C° 0.1 mm 1 mps 592 mmHg 96%

    7 June, Sunday

    Time Temperature Precipitation Wind Pressure Humidity
    00:00 +5°C° 0.1 mm 1 mps 591 mmHg 96%
    01:00 +5°C° 0.1 mm 1 mps 591 mmHg 96%
    02:00 +5°C° 0.1 mm 1 mps 591 mmHg 96%
    03:00 +5°C° 0.1 mm 1 mps 591 mmHg 96%
    04:00 +5°C° 0.1 mm 1 mps 590 mmHg 96%
    05:00 +5°C° 1 mm 1 mps 591 mmHg 96%
    06:00 +5°C° 1 mm 1 mps 591 mmHg 96%
    07:00 +6°C° 1 mm 1 mps 591 mmHg 96%
    08:00 +7°C° 0.5 mm 1 mps 591 mmHg 92%
    09:00 +8°C° 0.5 mm 1 mps 592 mmHg 88%
    10:00 +9°C° 0.5 mm 1 mps 592 mmHg 84%
    11:00 +9°C° 0.3 mm 1 mps 593 mmHg 82%
    12:00 +9°C° 0.3 mm 2 mps 593 mmHg 79%
    13:00 +10°C° 0.3 mm 2 mps 593 mmHg 76%
    14:00 +9°C° 1 mm 2 mps 593 mmHg 81%
    15:00 +8°C° 1 mm 2 mps 593 mmHg 85%
    16:00 +7°C° 1 mm 2 mps 593 mmHg 90%
    17:00 +6°C° 1.7 mm 2 mps 592 mmHg 92%
    18:00 +6°C° 1.7 mm 1 mps 592 mmHg 95%
    19:00 +5°C° 1.7 mm 1 mps 592 mmHg 98%
    20:00 +5°C° 0.6 mm 1 mps 592 mmHg 98%
    21:00 +5°C° 0.6 mm 1 mps 592 mmHg 98%
    22:00 +4°C° 0.6 mm 1 mps 593 mmHg 98%
    23:00 +4°C° 0.4 mm 1 mps 592 mmHg 98%
    Show more